Regional Weather Roundup
Issued by NWS Bismarck, ND

Home | Current Version | Previous Version | Text Only | Print | Product List | Glossary On
Versions: 1 2 3 4 5 6 7 8 9 10 11 12 13 14 15 16 17 18 19 20 21 22 23 24 25 26 27 28 29 30 31 32 33 34 35 36 37 38 39 40 41 42 43 44 45 46 47 48 49 50
000
ASUS43 KBIS 221410
RWRBIS

NWR BROADCAST TEXT
NATIONAL WEATHER SERVICE BISMARCK ND
900 AM CDT SUN OCT 22 2017

NOTE: "FAIR" INDICATES FEW OR NO CLOUDS BELOW 12,000 FEET WITH NO
SIGNIFICANT WEATHER AND/OR OBSTRUCTIONS TO VISIBILITY.


CITY           SKY/WX    TMP DP  RH WIND       PRES   REMARKS
WILLISTON      CLEAR     31  25  78 S5        29.74F
MINOT          CLEAR     39  28  64 SW12      29.75R
MINOT AFB      CLEAR     38  28  66 SW10      29.73S
BISMARCK       CLEAR     33  26  75 CALM      29.86S
DICKINSON      CLOUDY    38  20  48 SW16      29.78F
GARRISON         N/A     37  31  78 SW10      29.78F
HETTINGER ARPT CLOUDY    34  21  59 S6        29.86F
JAMESTOWN      CLEAR     39  29  67 SW12      29.86R
CARRINGTON     FAIR      37  30  75 SW9G15    29.85R
LINTON           N/A     32  25  74 E7        29.92R
TIOGA          FAIR      32  28  86 S6        29.74S
$$

CITY           SKY/WX    TMP DP  RH WIND       PRES   REMARKS
GRAND FORKS    CLEAR     43  34  70 SW14      29.80R
GRAND FORKS AF CLEAR     42  31  65 SW13      29.80R
DEVILS LAKE    CLEAR     40  33  76 SW12      29.79R
FARGO          CLEAR     41  34  76 SW10      29.88R
CANDO          FAIR      34  34 100 SW12      29.78S
CAVALIER       FAIR      41  34  75 SW14      29.71R
GRAFTON        FAIR      41  34  75 SW15      29.77R
GWINNER          N/A     36  32  87 SW10      29.93R
LANGDON        FAIR      36  34  93 W16       29.73R
ROLLA          FAIR      34  30  86 SW15G21   29.74R
WALHALLA       FAIR     N/A N/A N/A W12G21    29.71R
$$

CITY           SKY/WX    TMP DP  RH WIND       PRES   REMARKS
ABERDEEN       CLEAR     33  30  88 S5        29.96S
MOBRIDGE       PTCLDY    39  30  70 SE5       29.92R
BUFFALO          N/A     37  19  48 SW8       29.79F
RAPID CITY     CLOUDY    33  18  53 CALM      29.95S
GLASGOW        CLOUDY    40  28  62 SE9       29.65F
SIDNEY         MOCLDY    34  24  67 S8        29.75F
WOLF POINT     CLOUDY    32  26  78 CALM      29.71S
GLENDIVE       CLEAR     33  22  63 S7        29.76F
MILES CITY     CLOUDY    36  24  62 SE8       29.79S
BAKER          PTCLDY    43  20  39 SW15      29.81F
$$

CITY           SKY/WX    TMP DP  RH WIND       PRES   REMARKS
BILLINGS       CLOUDY    50  26  39 SW15G24   29.84R
GREAT FALLS    CLOUDY    51  34  52 SW17G29   29.71R
REGINA         CLOUDY    28  25  86 SE7       29.61F
ESTEVAN        MOCLDY    32  25  74 SW14      29.69F
$$





USA.gov is the U.S. government's official web portal to all federal, state and local government web resources and services.